Tri-Cities, TN

4:20 PM EDT on August 20, 2017 (GMT -0400)
Tri-Cities Regional Tennessee / Virginia

Weather History for KTRI - January, 2004

Change the Weather History Date:

Tuesday, January 13, 2004

  Actual Average Record
Temperature  
Mean Temperature 38 °F 35 °F  
Max Temperature 52 °F 45 °F 73 °F (2013)
Min Temperature 24 °F 25 °F 5 °F (1954)
Degree Days  
Heating Degree Days 27 30  
Month to date heating degree days 390  
Since 1 July heating degree days 2119  
Cooling Degree Days 0 0  
Month to date cooling degree days 0  
Year to date cooling degree days 0  
Moisture  
Dew Point 28 °F    
Average Humidity 70    
Maximum Humidity 96    
Minimum Humidity 41    
Precipitation  
Precipitation 0.00 in 0.11 in 0.71 in (1951)
Month to date precipitation 1.37  
Year to date precipitation 1.37  
Snow  
Snow 0.00 in 0.10 in - ()
Month to date snowfall 1.8  
Since 1 July snowfall 4.5  
Snow Depth -    
Sea Level Pressure  
Sea Level Pressure 30.22 in    
Wind  
Wind Speed 3 mph (WSW)    
Max Wind Speed 15 mph    
Max Gust Speed 23 mph    
Visibility 9 miles    
Events      
T = Trace of Precipitation, MM = Missing Value Source: NWS Daily Summary

Daily Weather History Graph

Daily Weather History Graph

Search for Another Location

Airport or City:

Trip Planner

Search our weather history database for the weather conditions in past years. The results will help you decide how hot, cold, wet, or windy it might be!

Date:

Astronomy

Jan. 13, 2004 Rise Set
Actual Time 7:41 AM EST 5:35 PM EST
Civil Twilight 7:13 AM EST 6:03 PM EST
Nautical Twilight 6:41 AM EST 6:35 PM EST
Astronomical Twilight 6:10 AM EST 7:06 PM EST
Moon 11:46 PM EST (1/13) 11:23 AM EST (1/13)
Length of Visible Light 10h 50m
Length of Day
9h 54m
Waning Gibbous, 66% of the Moon is Illuminated
Jan 13
Waning Gibbous
Jan 14
Last Quarter
Jan 21
New
Jan 29
First Quarter
Feb 6
Full

Hourly Weather History & Observations

Time (EST) Temp. Windchill Dew Point Humidity Pressure Visibility Wind Dir Wind Speed Gust Speed Precip Events Conditions
12:53 AM 28.0 °F - 25.0 °F 88% 30.24 in 7.0 mi Calm Calm - N/A   Clear
1:53 AM 27.0 °F - 25.0 °F 92% 30.24 in 6.0 mi Calm Calm - N/A   Clear
2:53 AM 26.1 °F - 24.1 °F 92% 30.26 in 6.0 mi Calm Calm - N/A   Clear
3:53 AM 26.1 °F - 24.1 °F 92% 30.25 in 6.0 mi Calm Calm - N/A   Clear
4:53 AM 24.1 °F - 21.9 °F 91% 30.25 in 5.0 mi Calm Calm - N/A   Clear
5:53 AM 24.1 °F - 21.9 °F 91% 30.26 in 6.0 mi Calm Calm - N/A   Clear
6:53 AM 26.1 °F - 24.1 °F 92% 30.26 in 4.0 mi Calm Calm - N/A   Clear
7:53 AM 24.1 °F - 23.0 °F 96% 30.28 in 10.0 mi Calm Calm - N/A   Scattered Clouds
8:53 AM 30.0 °F - 27.0 °F 88% 30.29 in 10.0 mi Calm Calm - N/A   Partly Cloudy
9:53 AM 37.0 °F 34.5 °F 33.1 °F 86% 30.28 in 10.0 mi SSW 3.5 mph - N/A   Partly Cloudy
10:53 AM 43.0 °F 39.5 °F 33.1 °F 68% 30.26 in 10.0 mi SSW 5.8 mph - N/A   Partly Cloudy
11:53 AM 46.9 °F - 32.0 °F 56% 30.23 in 10.0 mi WSW 11.5 mph - N/A   Partly Cloudy
12:53 PM 50.0 °F - 30.9 °F 48% 30.19 in 10.0 mi West 13.8 mph - N/A   Partly Cloudy
1:53 PM 51.1 °F - 30.0 °F 44% 30.17 in 10.0 mi West 10.4 mph 23.0 mph N/A   Partly Cloudy
2:53 PM 52.0 °F - 28.9 °F 41% 30.16 in 10.0 mi WSW 13.8 mph 21.9 mph N/A   Partly Cloudy
3:53 PM 51.1 °F - 30.0 °F 44% 30.15 in 10.0 mi WSW 15.0 mph - N/A   Partly Cloudy
4:53 PM 50.0 °F - 30.0 °F 46% 30.16 in 10.0 mi West 12.7 mph - N/A   Partly Cloudy
5:53 PM 45.0 °F 41.2 °F 28.9 °F 53% 30.17 in 10.0 mi WSW 6.9 mph - N/A   Partly Cloudy
6:53 PM 44.1 °F 39.5 °F 30.0 °F 58% 30.19 in 10.0 mi West 8.1 mph - N/A   Partly Cloudy
7:53 PM 41.0 °F 35.8 °F 30.0 °F 65% 30.20 in 10.0 mi West 8.1 mph - N/A   Partly Cloudy
8:53 PM 42.1 °F 38.4 °F 28.0 °F 58% 30.20 in 10.0 mi West 5.8 mph - N/A   Clear
9:53 PM 41.0 °F 37.1 °F 28.9 °F 62% 30.20 in 10.0 mi WSW 5.8 mph - N/A   Partly Cloudy
10:53 PM 41.0 °F 35.2 °F 28.9 °F 62% 30.19 in 10.0 mi WNW 9.2 mph - N/A   Partly Cloudy
11:53 PM 35.1 °F - 28.0 °F 76% 30.19 in 10.0 mi Calm Calm - N/A   Clear